Weather in Puerto Viejo

Costa Rica     9°39′21″N   82°45′06″W
temp.,
°C
wind,
m/s
gust,
m/s
humid.,
%
clouds,
%
prec.,
mm/h
press.,
hPa
HPBL,
m
14 may, fri
fri1400:00+27wnw228043 2.4 1011144
03:00+27nw2279100 2.4 1010122
06:00+26w2279100 4.8 1012148
09:00+27nw237498 0.8 1013360
12:00+28nne4472100 1.6 1012717
15:00+27nne4476100 1.9 1010553
18:00+27nne2376100 7.3 1012158
21:00+27w2275100 2.4 1013204
15 may, sat
sat1500:00+26w448199 2.6 1013196
03:00+26w448095 0.5 1012214
06:00+26w337770 1.2 1013208
09:00+27wnw227399 0.9 1014213
12:00+28n337013 1.1 1012565
15:00+28nne336843 0.2 1011745
18:00+27ne22737 0.4 1012592
21:00+27n2276100 1.3 1014289
16 may, sun
sun1600:00+26w227897 1.7 1012367
03:00+26w328185 0.0 1011316
06:00+25wsw228150 0.0 1013238
09:00+26wnw127429 0.0 1014269
12:00+27n22745 0.0 1013469
15:00+27nne337313 0.0 1011583
18:00+28nne227237 0.0 1012660
21:00+27w227612 0.5 1014380
17 may, mon
mon1700:00+26w228145 1.5 1013161
03:00+26wsw228199 0.4 1011149
06:00+25wsw337921 0.7 1013228
09:00+27wnw1272100 0.0 1014275
12:00+27nne3374100 0.0 1012436
15:00+28nne337370 0.0 1010603
18:00+28nne227430 0.0 1012636
21:00+27wnw117524 0.2 1013517
18 may, tue
tue1800:00+26w22815 0.2 1012336
03:00+25w33845 0.1 1011285
06:00+25wsw228085 0.4 1013205
09:00+27nw12727 0.1 1014254
12:00+27n3373100 0.1 1012399
15:00+28nne3372100 0.0 1010521
18:00+28nne1172100 0.0 1011565
21:00+27w117594 0.0 1012376